Regional Weather Roundup
Issued by NWS Cleveland, OH

Home | Current Version | Previous Version | Graphics & Text | Print | Product List | Glossary On
Versions: 1 2 3 4 5 6 7 8 9 10 11 12 13 14 15 16 17 18 19 20 21 22 23 24 25 26 27 28 29 30 31 32 33 34 35 36 37 38 39 40 41 42 43 44 45 46 47 48 49 50
000
ASUS41 KCLE 271902
RWRCLE
OHIO REGIONAL WEATHER ROUNDUP
NATIONAL WEATHER SERVICE CLEVELAND, OH
300 PM EDT FRI MAY 27 2016

NOTE: "FAIR" INDICATES FEW OR NO CLOUDS BELOW 12,000 FEET WITH NO
SIGNIFICANT WEATHER AND/OR OBSTRUCTIONS TO VISIBILITY.

OHZ001>008-015>018-024>027-034-035-043-044-272000-
   NORTHWEST OHIO

CITY           SKY/WX    TMP DP  RH WIND       PRES   REMARKS
DEFIANCE       CLOUDY    84  62  47 S8        29.98F
FINDLAY        CLOUDY    86  59  39 SW12G20   29.98F
TOLEDO EXPRESS PTSUNNY   81  63  54 SW7       29.98F
TOLEDO EXEC    CLOUDY    85  62  46 SW8       29.99F
LIMA           SUNNY     86  62  44 W12       29.99F
$$

OHZ009>014-019>023-028>033-038-089-272000-
   NORTHEAST OHIO

CITY           SKY/WX    TMP DP  RH WIND       PRES   REMARKS
CLE-HOPKINS    PTSUNNY   85  61  44 VRB3      30.04F
CLE-LAKEFRONT  MOSUNNY   73  64  73 N6        30.02S
CUY CO. ARPT   NOT AVBL
LORAIN-ELYRIA  MOSUNNY   83  60  45 MISG      30.01F
ASHTABULA      SUNNY     82  64  54 CALM      30.04S
AKRON-CANTON   PTSUNNY   83  61  47 SW14      30.04F
WOOSTER        SUNNY     86  61  42 W14       30.04F
MANSFIELD      PTSUNNY   82  62  50 S10       30.04F
YOUNGSTOWN     PTSUNNY   84  61  45 S12       30.05S
$$

OHZ042-051>053-060>062-070>072-077>081-272000-
  SOUTHWEST OHIO

CITY           SKY/WX    TMP DP  RH WIND       PRES   REMARKS
CINC-COVINGTON MOSUNNY   84  65  52 SW10G17   30.02F
CINC-LUNKEN    PTSUNNY   83  68  60 S10       30.01F
HAMILTON       MOSUNNY   86  65  49 VRB6      30.01F
DAYTON         MOSUNNY   84  61  45 SW10      30.02F
WRIGHT-PAT AFB MOSUNNY   85  64  48 SW14      30.00F
DAYTON GENERAL MOSUNNY   84  63  49 S10       30.01F
WILMINGTON     MOSUNNY   84  64  50 SW9       30.03F
$$

OHZ036-037-039>041-045>050-054>059-063>069-073>076-082>088-272000-
  CENTRAL AND SOUTHEAST OHIO

CITY           SKY/WX    TMP DP  RH WIND       PRES   REMARKS
COLUMBUS       MOSUNNY   85  63  47 S6        30.02F
OSU AIRPORT    NOT AVBL
BOLTON FIELD   MOSUNNY   86  64  48 SW10      30.03F
RICKENBACK AFB NOT AVBL
NEWARK         MOSUNNY   86  64  47 SW8       30.03F
MARION         SUNNY     85  60  42 SW8G17    30.02F
LANCASTER      MOSUNNY   85  64  49 SW10      30.04F
ZANESVILLE     MOSUNNY   87  65  47 S9        30.04F
NEW PHILLY     PTSUNNY   86  63  45 SW8       30.05S
$$




USA.gov is the U.S. government's official web portal to all federal, state and local government web resources and services.